Time,TemperatureF,DewpointF,PressureIn,WindDirection,WindDirectionDegrees,WindSpeedMPH,WindSpeedGustMPH,Humidity,HourlyPrecipIn,Conditions,Clouds,dailyrainin,SoftwareType,DateUTC
2013-04-03 00:10:00,31.5,17.0,30.29,NW,315,0.0,0.0,56,0.00,,,0.00,weatherlink.com 1.10,2013-04-03 04:10:00,
2013-04-03 00:25:00,30.6,17.0,30.29,NW,315,0.0,0.0,58,0.00,,,0.00,weatherlink.com 1.10,2013-04-03 04:25:00,
2013-04-03 00:40:00,29.8,17.0,30.29,NW,315,0.0,0.0,59,0.00,,,0.00,weatherlink.com 1.10,2013-04-03 04:40:00,
2013-04-03 00:55:00,28.8,16.0,30.29,NW,315,0.0,0.0,60,0.00,,,0.00,weatherlink.com 1.10,2013-04-03 04:55:00,
2013-04-03 01:10:00,28.2,18.0,30.29,NW,315,0.0,0.0,65,0.00,,,0.00,weatherlink.com 1.10,2013-04-03 05:10:00,
2013-04-03 01:25:00,27.8,15.0,30.29,NW,315,0.0,0.0,59,0.00,,,0.00,weatherlink.com 1.10,2013-04-03 05:25:00,
2013-04-03 01:40:00,27.6,16.0,30.30,NW,315,0.0,0.0,61,0.00,,,0.00,weatherlink.com 1.10,2013-04-03 05:40:00,
2013-04-03 01:55:00,27.4,16.0,30.30,NW,315,0.0,0.0,62,0.00,,,0.00,weatherlink.com 1.10,2013-04-03 05:55:00,
2013-04-03 02:11:00,27.5,17.0,30.30,NW,315,0.0,0.0,64,0.00,,,0.00,weatherlink.com 1.10,2013-04-03 06:11:00,
2013-04-03 02:25:00,27.3,18.0,30.30,NW,315,0.0,0.0,68,0.00,,,0.00,weatherlink.com 1.10,2013-04-03 06:25:00,
2013-04-03 02:40:00,26.7,16.0,30.31,NW,315,0.0,0.0,64,0.00,,,0.00,weatherlink.com 1.10,2013-04-03 06:40:00,
2013-04-03 02:55:00,26.6,17.0,30.30,NW,315,0.0,0.0,66,0.00,,,0.00,weatherlink.com 1.10,2013-04-03 06:55:00,
2013-04-03 03:10:00,26.7,17.0,30.30,NW,315,0.0,1.0,66,0.00,,,0.00,weatherlink.com 1.10,2013-04-03 07:10:00,
2013-04-03 03:25:00,26.6,17.0,30.30,WNW,294,2.0,4.0,67,0.00,,,0.00,weatherlink.com 1.10,2013-04-03 07:25:00,
2013-04-03 03:40:00,27.8,17.0,30.30,NW,317,2.0,3.0,63,0.00,,,0.00,weatherlink.com 1.10,2013-04-03 07:40:00,
2013-04-03 03:55:00,28.1,16.0,30.31,NW,323,0.0,3.0,61,0.00,,,0.00,weatherlink.com 1.10,2013-04-03 07:55:00,
2013-04-03 04:10:00,28.1,17.0,30.31,NW,319,0.0,1.0,64,0.00,,,0.00,weatherlink.com 1.10,2013-04-03 08:10:00,
2013-04-03 04:25:00,27.5,17.0,30.32,NW,319,0.0,0.0,66,0.00,,,0.00,weatherlink.com 1.10,2013-04-03 08:25:00,
2013-04-03 04:40:00,26.6,19.0,30.32,NW,319,0.0,0.0,74,0.00,,,0.00,weatherlink.com 1.10,2013-04-03 08:40:00,
2013-04-03 04:55:00,25.6,18.0,30.32,NW,319,0.0,0.0,73,0.00,,,0.00,weatherlink.com 1.10,2013-04-03 08:55:00,
2013-04-03 05:10:00,25.0,17.0,30.32,NW,319,0.0,0.0,71,0.00,,,0.00,weatherlink.com 1.10,2013-04-03 09:10:00,
2013-04-03 05:25:00,24.4,16.0,30.33,NW,319,0.0,0.0,69,0.00,,,0.00,weatherlink.com 1.10,2013-04-03 09:25:00,
2013-04-03 05:40:00,24.4,18.0,30.34,NW,319,0.0,0.0,75,0.00,,,0.00,weatherlink.com 1.10,2013-04-03 09:40:00,
2013-04-03 05:55:00,24.2,17.0,30.34,NW,319,0.0,0.0,74,0.00,,,0.00,weatherlink.com 1.10,2013-04-03 09:55:00,
2013-04-03 06:10:00,23.9,17.0,30.34,NW,319,0.0,0.0,74,0.00,,,0.00,weatherlink.com 1.10,2013-04-03 10:10:00,
2013-04-03 06:25:00,24.0,17.0,30.34,NW,319,0.0,0.0,76,0.00,,,0.00,weatherlink.com 1.10,2013-04-03 10:25:00,
2013-04-03 06:40:00,24.0,17.0,30.35,NW,319,0.0,0.0,76,0.00,,,0.00,weatherlink.com 1.10,2013-04-03 10:40:00,
2013-04-03 06:55:00,24.1,17.0,30.35,NW,319,0.0,0.0,74,0.00,,,0.00,weatherlink.com 1.10,2013-04-03 10:55:00,
2013-04-03 07:10:00,23.8,17.0,30.34,NW,319,0.0,1.0,75,0.00,,,0.00,weatherlink.com 1.10,2013-04-03 11:10:00,
2013-04-03 07:25:00,24.0,17.0,30.35,NW,319,0.0,1.0,75,0.00,,,0.00,weatherlink.com 1.10,2013-04-03 11:25:00,
2013-04-03 07:40:00,23.9,18.0,30.35,NW,319,0.0,2.0,77,0.00,,,0.00,weatherlink.com 1.10,2013-04-03 11:40:00,
2013-04-03 07:55:00,23.9,18.0,30.36,NW,319,0.0,0.0,78,0.00,,,0.00,weatherlink.com 1.10,2013-04-03 11:55:00,
2013-04-03 08:10:00,23.9,19.0,30.37,NW,319,0.0,0.0,80,0.00,,,0.00,weatherlink.com 1.10,2013-04-03 12:10:00,
2013-04-03 08:26:00,24.8,21.0,30.38,NW,319,0.0,0.0,84,0.00,,,0.00,weatherlink.com 1.10,2013-04-03 12:26:00,
2013-04-03 08:41:00,26.3,22.0,30.39,NW,319,0.0,0.0,83,0.00,,,0.00,weatherlink.com 1.10,2013-04-03 12:41:00,
2013-04-03 08:56:00,28.0,22.0,30.40,NW,319,0.0,0.0,79,0.00,,,0.00,weatherlink.com 1.10,2013-04-03 12:56:00,
2013-04-03 09:11:00,29.6,21.0,30.42,NW,319,0.0,0.0,70,0.00,,,0.00,weatherlink.com 1.10,2013-04-03 13:11:00,
2013-04-03 09:41:00,34.4,20.0,30.43,ESE,109,0.0,3.0,56,0.00,,,0.00,weatherlink.com 1.10,2013-04-03 13:41:00,
2013-04-03 09:56:00,35.7,19.0,30.43,ENE,69,0.0,2.0,50,0.00,,,0.00,weatherlink.com 1.10,2013-04-03 13:56:00,
2013-04-03 10:26:00,38.8,23.0,30.44,WSW,242,0.0,6.0,54,0.00,,,0.00,weatherlink.com 1.10,2013-04-03 14:26:00,
2013-04-03 10:56:00,41.6,22.0,30.44,NW,313,4.0,5.0,46,0.00,,,0.00,weatherlink.com 1.10,2013-04-03 14:56:00,
2013-04-03 11:11:00,42.1,21.0,30.45,NNE,33,1.0,5.0,44,0.00,,,0.00,weatherlink.com 1.10,2013-04-03 15:11:00,
2013-04-03 11:26:00,42.6,21.0,30.45,West,259,3.0,6.0,42,0.00,,,0.00,weatherlink.com 1.10,2013-04-03 15:26:00,
2013-04-03 11:41:00,43.1,22.0,30.44,SSW,206,1.0,2.0,43,0.00,,,0.00,weatherlink.com 1.10,2013-04-03 15:41:00,
2013-04-03 12:11:00,43.8,22.0,30.44,WNW,297,8.0,8.0,42,0.00,,,0.00,weatherlink.com 1.10,2013-04-03 16:11:00,
2013-04-03 12:26:00,43.6,21.0,30.44,North,360,0.0,8.0,41,0.00,,,0.00,weatherlink.com 1.10,2013-04-03 16:26:00,
2013-04-03 12:41:00,44.1,21.0,30.44,NNE,27,3.0,9.0,40,0.00,,,0.00,weatherlink.com 1.10,2013-04-03 16:41:00,
2013-04-03 12:56:00,44.4,22.0,30.43,WNW,301,3.0,6.0,41,0.00,,,0.00,weatherlink.com 1.10,2013-04-03 16:56:00,
2013-04-03 13:12:00,45.3,23.0,30.43,WSW,253,3.0,9.0,42,0.00,,,0.00,weatherlink.com 1.10,2013-04-03 17:12:00,
2013-04-03 13:26:00,45.4,24.0,30.43,West,266,1.0,7.0,43,0.00,,,0.00,weatherlink.com 1.10,2013-04-03 17:26:00,
2013-04-03 13:56:00,45.6,22.0,30.42,WNW,298,9.0,11.0,40,0.00,,,0.00,weatherlink.com 1.10,2013-04-03 17:56:00,
2013-04-03 14:11:00,46.8,23.0,30.41,NNE,19,1.0,8.0,40,0.00,,,0.00,weatherlink.com 1.10,2013-04-03 18:11:00,
2013-04-03 14:27:00,46.4,22.0,30.40,NNW,328,3.0,10.0,38,0.00,,,0.00,weatherlink.com 1.10,2013-04-03 18:27:00,
2013-04-03 14:41:00,46.9,24.0,30.38,NW,324,11.0,11.0,41,0.00,,,0.00,weatherlink.com 1.10,2013-04-03 18:41:00,
2013-04-03 14:57:00,46.9,24.0,30.38,NNE,14,2.0,8.0,40,0.00,,,0.00,weatherlink.com 1.10,2013-04-03 18:57:00,
2013-04-03 15:12:00,47.1,24.0,30.37,NNW,342,2.0,8.0,40,0.00,,,0.00,weatherlink.com 1.10,2013-04-03 19:12:00,
2013-04-03 15:27:00,47.7,23.0,30.36,North,9,3.0,13.0,38,0.00,,,0.00,weatherlink.com 1.10,2013-04-03 19:27:00,
2013-04-03 15:42:00,47.5,23.0,30.37,NW,308,4.0,12.0,38,0.00,,,0.00,weatherlink.com 1.10,2013-04-03 19:42:00,
2013-04-03 15:57:00,48.3,24.0,30.36,NW,325,4.0,13.0,39,0.00,,,0.00,weatherlink.com 1.10,2013-04-03 19:57:00,
2013-04-03 16:12:00,48.6,20.0,30.36,WNW,286,8.0,11.0,32,0.00,,,0.00,weatherlink.com 1.10,2013-04-03 20:12:00,
2013-04-03 16:27:00,48.7,25.0,30.36,WNW,285,10.0,10.0,39,0.00,,,0.00,weatherlink.com 1.10,2013-04-03 20:27:00,
2013-04-03 16:42:00,49.0,22.0,30.36,NNW,333,0.0,4.0,35,0.00,,,0.00,weatherlink.com 1.10,2013-04-03 20:42:00,
2013-04-03 16:57:00,49.3,23.0,30.36,NE,55,1.0,8.0,36,0.00,,,0.00,weatherlink.com 1.10,2013-04-03 20:57:00,
2013-04-03 17:12:00,48.7,21.0,30.36,NW,304,3.0,7.0,33,0.00,,,0.00,weatherlink.com 1.10,2013-04-03 21:12:00,
2013-04-03 17:27:00,48.0,21.0,30.36,NNW,328,3.0,6.0,34,0.00,,,0.00,weatherlink.com 1.10,2013-04-03 21:27:00,
2013-04-03 17:42:00,47.4,19.0,30.36,North,351,2.0,6.0,33,0.00,,,0.00,weatherlink.com 1.10,2013-04-03 21:42:00,
2013-04-03 17:57:00,47.5,20.0,30.36,North,355,2.0,6.0,34,0.00,,,0.00,weatherlink.com 1.10,2013-04-03 21:57:00,
2013-04-03 18:12:00,47.6,20.0,30.36,NNW,339,1.0,3.0,34,0.00,,,0.00,weatherlink.com 1.10,2013-04-03 22:12:00,
2013-04-03 18:27:00,47.2,21.0,30.35,NNE,17,1.0,4.0,35,0.00,,,0.00,weatherlink.com 1.10,2013-04-03 22:27:00,
2013-04-03 18:42:00,46.9,20.0,30.35,NE,40,1.0,2.0,35,0.00,,,0.00,weatherlink.com 1.10,2013-04-03 22:42:00,
2013-04-03 18:57:00,46.6,20.0,30.35,NNE,24,0.0,3.0,35,0.00,,,0.00,weatherlink.com 1.10,2013-04-03 22:57:00,
2013-04-03 19:12:00,46.1,20.0,30.35,NNE,12,1.0,2.0,36,0.00,,,0.00,weatherlink.com 1.10,2013-04-03 23:12:00,
2013-04-03 19:27:00,45.7,19.0,30.35,NE,38,1.0,4.0,35,0.00,,,0.00,weatherlink.com 1.10,2013-04-03 23:27:00,
2013-04-03 19:42:00,44.8,20.0,30.35,NNE,21,0.0,2.0,37,0.00,,,0.00,weatherlink.com 1.10,2013-04-03 23:42:00,
2013-04-03 19:57:00,43.8,20.0,30.35,NE,49,1.0,7.0,38,0.00,,,0.00,weatherlink.com 1.10,2013-04-03 23:57:00,
2013-04-03 20:12:00,43.1,21.0,30.34,NE,38,0.0,1.0,41,0.00,,,0.00,weatherlink.com 1.10,2013-04-04 00:12:00,
2013-04-03 20:27:00,42.0,20.0,30.34,NE,38,0.0,0.0,42,0.00,,,0.00,weatherlink.com 1.10,2013-04-04 00:27:00,
2013-04-03 20:42:00,40.9,19.0,30.34,NE,38,0.0,0.0,42,0.00,,,0.00,weatherlink.com 1.10,2013-04-04 00:42:00,
2013-04-03 20:57:00,40.1,22.0,30.34,NE,38,0.0,0.0,48,0.00,,,0.00,weatherlink.com 1.10,2013-04-04 00:57:00,
2013-04-03 21:12:00,38.6,23.0,30.34,NE,38,0.0,1.0,54,0.00,,,0.00,weatherlink.com 1.10,2013-04-04 01:12:00,
2013-04-03 21:27:00,37.2,21.0,30.34,NE,38,0.0,1.0,53,0.00,,,0.00,weatherlink.com 1.10,2013-04-04 01:27:00,
2013-04-03 21:42:00,36.3,21.0,30.34,NE,38,0.0,0.0,54,0.00,,,0.00,weatherlink.com 1.10,2013-04-04 01:42:00,
2013-04-03 21:57:00,35.7,21.0,30.33,NE,38,0.0,0.0,55,0.00,,,0.00,weatherlink.com 1.10,2013-04-04 01:57:00,
2013-04-03 22:12:00,35.5,21.0,30.33,NE,38,0.0,0.0,55,0.00,,,0.00,weatherlink.com 1.10,2013-04-04 02:12:00,
2013-04-03 22:27:00,35.6,21.0,30.33,NNE,27,0.0,2.0,56,0.00,,,0.00,weatherlink.com 1.10,2013-04-04 02:27:00,
2013-04-03 22:42:00,34.9,20.0,30.33,NNE,27,0.0,0.0,56,0.00,,,0.00,weatherlink.com 1.10,2013-04-04 02:42:00,
2013-04-03 22:57:00,34.3,21.0,30.33,NNE,27,0.0,0.0,59,0.00,,,0.00,weatherlink.com 1.10,2013-04-04 02:57:00,
2013-04-03 23:12:00,34.2,21.0,30.33,NNE,27,0.0,0.0,58,0.00,,,0.00,weatherlink.com 1.10,2013-04-04 03:12:00,
2013-04-03 23:27:00,34.5,19.0,30.33,NNE,27,0.0,0.0,54,0.00,,,0.00,weatherlink.com 1.10,2013-04-04 03:27:00,
2013-04-03 23:42:00,35.3,20.0,30.34,NNE,31,0.0,1.0,54,0.00,,,0.00,weatherlink.com 1.10,2013-04-04 03:42:00,
2013-04-03 23:57:00,35.5,20.0,30.34,ENE,58,0.0,2.0,53,0.00,,,0.00,weatherlink.com 1.10,2013-04-04 03:57:00,